• In Hungary
  • List of Countries
  • For 7 days
  • Water Temperature
  • Satellite Maps
  • Weather Map
  • News
  • Weather Widgets
  • user-avatar
    Login

    Hourly Weather Sucre

    Today, 18 February, Sunday

    Time Temperature Precipitation Wind Pressure Humidity
    00:00 +14°C° 0.4 mm 2 mps 540 mmHg 87%
    01:00 +13°C° 0.4 mm 1 mps 539 mmHg 88%
    02:00 +13°C° 0 mm 1 mps 539 mmHg 92%
    03:00 +13°C° 0.1 mm 1 mps 539 mmHg 92%
    04:00 +13°C° 0.1 mm 1 mps 539 mmHg 92%
    05:00 +13°C° 0.1 mm 2 mps 539 mmHg 92%
    06:00 +13°C° 0 mm 2 mps 539 mmHg 89%
    07:00 +13°C° 0 mm 2 mps 539 mmHg 87%
    08:00 +14°C° 0 mm 2 mps 539 mmHg 83%
    09:00 +16°C° 0 mm 2 mps 540 mmHg 73%
    10:00 +18°C° 0 mm 2 mps 540 mmHg 63%
    11:00 +20°C° 0 mm 3 mps 541 mmHg 53%
    12:00 +21°C° 0.1 mm 3 mps 541 mmHg 48%
    13:00 +22°C° 0.1 mm 3 mps 540 mmHg 44%
    14:00 +25°C° 0.1 mm 4 mps 540 mmHg 39%
    15:00 +23°C° 1.5 mm 4 mps 540 mmHg 40%
    16:00 +23°C° 1.5 mm 4 mps 539 mmHg 42%
    17:00 +22°C° 1.5 mm 4 mps 538 mmHg 44%
    18:00 +20°C° 2 mm 3 mps 538 mmHg 53%
    19:00 +18°C° 2 mm 3 mps 537 mmHg 62%
    20:00 +16°C° 2 mm 2 mps 536 mmHg 72%
    21:00 +15°C° 0.3 mm 1 mps 537 mmHg 76%
    22:00 +14°C° 0.3 mm 1 mps 537 mmHg 81%
    23:00 +14°C° 0.3 mm 1 mps 537 mmHg 86%

    Tomorrow, 19 February, Monday

    Time Temperature Precipitation Wind Pressure Humidity
    00:00 +13°C° 0.4 mm 1 mps 537 mmHg 87%
    01:00 +13°C° 0.4 mm 1 mps 537 mmHg 87%
    02:00 +13°C° 0.4 mm 1 mps 536 mmHg 87%
    03:00 +12°C° 0.1 mm 1 mps 536 mmHg 86%
    04:00 +12°C° 0.1 mm 1 mps 536 mmHg 85%
    05:00 +12°C° 0.1 mm 1 mps 536 mmHg 84%
    06:00 +13°C° 0 mm 1 mps 537 mmHg 75%
    07:00 +15°C° 0 mm 1 mps 538 mmHg 67%
    08:00 +16°C° 0 mm 1 mps 539 mmHg 58%
    09:00 +19°C° 0 mm 1 mps 540 mmHg 49%
    10:00 +21°C° 0 mm 1 mps 541 mmHg 40%
    11:00 +23°C° 0 mm 1 mps 541 mmHg 30%
    12:00 +23°C° 0 mm 1 mps 541 mmHg 29%
    13:00 +24°C° 0 mm 2 mps 541 mmHg 28%
    14:00 +25°C° 0 mm 2 mps 541 mmHg 26%
    15:00 +25°C° 0 mm 4 mps 540 mmHg 30%
    16:00 +23°C° 0 mm 5 mps 539 mmHg 34%
    17:00 +23°C° 0 mm 6 mps 539 mmHg 38%
    18:00 +20°C° 1.3 mm 5 mps 538 mmHg 50%
    19:00 +18°C° 1.3 mm 3 mps 538 mmHg 62%
    20:00 +16°C° 1.3 mm 2 mps 537 mmHg 74%
    21:00 +15°C° 1.1 mm 2 mps 538 mmHg 77%
    22:00 +15°C° 1.1 mm 1 mps 538 mmHg 81%
    23:00 +14°C° 1.1 mm 1 mps 538 mmHg 84%

    Day after tomorrow, 20 February, Tuesday

    Time Temperature Precipitation Wind Pressure Humidity
    00:00 +14°C° 0.2 mm 1 mps 538 mmHg 85%
    01:00 +13°C° 0.2 mm 1 mps 538 mmHg 86%
    02:00 +13°C° 0.2 mm 1 mps 537 mmHg 87%
    03:00 +13°C° 0 mm 1 mps 537 mmHg 88%
    04:00 +11°C° 0 mm 0 mps 537 mmHg 89%
    05:00 +11°C° 0 mm 0 mps 537 mmHg 89%
    06:00 +12°C° 0 mm 0 mps 538 mmHg 84%
    07:00 +13°C° 0 mm 0 mps 539 mmHg 79%
    08:00 +14°C° 0 mm 0 mps 540 mmHg 74%
    09:00 +18°C° 0.1 mm 1 mps 540 mmHg 65%
    10:00 +19°C° 0.1 mm 1 mps 541 mmHg 57%
    11:00 +21°C° 0.1 mm 1 mps 542 mmHg 49%
    12:00 +21°C° 0.2 mm 2 mps 541 mmHg 46%
    13:00 +23°C° 0.2 mm 2 mps 541 mmHg 43%
    14:00 +22°C° 0.2 mm 3 mps 541 mmHg 40%
    15:00 +22°C° 0.9 mm 3 mps 540 mmHg 44%
    16:00 +21°C° 0.9 mm 4 mps 540 mmHg 48%
    17:00 +20°C° 0.9 mm 4 mps 539 mmHg 52%
    18:00 +19°C° 1.2 mm 4 mps 539 mmHg 61%
    19:00 +17°C° 1.2 mm 3 mps 539 mmHg 69%
    20:00 +15°C° 1.2 mm 2 mps 539 mmHg 77%
    21:00 +15°C° 0.3 mm 2 mps 539 mmHg 79%
    22:00 +15°C° 0.3 mm 1 mps 540 mmHg 82%
    23:00 +14°C° 0.3 mm 1 mps 540 mmHg 84%

    21 February, Wednesday

    Time Temperature Precipitation Wind Pressure Humidity
    00:00 +14°C° 1 mm 1 mps 540 mmHg 85%
    01:00 +13°C° 1 mm 1 mps 540 mmHg 86%
    02:00 +13°C° 1 mm 1 mps 539 mmHg 87%
    03:00 +13°C° 0.7 mm 1 mps 539 mmHg 87%
    04:00 +12°C° 0.7 mm 1 mps 539 mmHg 88%
    05:00 +12°C° 0.7 mm 1 mps 539 mmHg 88%
    06:00 +13°C° 0.7 mm 1 mps 540 mmHg 84%
    07:00 +13°C° 0.7 mm 1 mps 541 mmHg 79%
    08:00 +14°C° 0.7 mm 1 mps 542 mmHg 75%
    09:00 +15°C° 1 mm 2 mps 543 mmHg 70%
    10:00 +16°C° 1 mm 2 mps 543 mmHg 65%
    11:00 +18°C° 1 mm 2 mps 543 mmHg 61%
    12:00 +18°C° 1.1 mm 3 mps 543 mmHg 61%
    13:00 +18°C° 1.1 mm 4 mps 542 mmHg 61%
    14:00 +18°C° 1.1 mm 4 mps 542 mmHg 61%
    15:00 +17°C° 0.8 mm 4 mps 541 mmHg 64%
    16:00 +17°C° 0.8 mm 4 mps 541 mmHg 66%
    17:00 +15°C° 0.8 mm 4 mps 540 mmHg 69%
    18:00 +14°C° 0.6 mm 3 mps 540 mmHg 74%
    19:00 +13°C° 0.6 mm 3 mps 541 mmHg 79%
    20:00 +13°C° 0.6 mm 2 mps 541 mmHg 84%
    21:00 +13°C° 0.8 mm 2 mps 541 mmHg 86%
    22:00 +13°C° 0.8 mm 1 mps 541 mmHg 87%
    23:00 +12°C° 0.8 mm 1 mps 542 mmHg 88%

    22 February, Thursday

    Time Temperature Precipitation Wind Pressure Humidity
    00:00 +12°C° 0.2 mm 1 mps 541 mmHg 88%
    01:00 +12°C° 0.2 mm 1 mps 541 mmHg 89%
    02:00 +12°C° 0.2 mm 1 mps 540 mmHg 89%
    03:00 +12°C° 0 mm 1 mps 540 mmHg 90%
    04:00 +11°C° 0 mm 1 mps 540 mmHg 91%
    05:00 +11°C° 0 mm 1 mps 540 mmHg 92%
    06:00 +11°C° 0 mm 1 mps 540 mmHg 89%
    07:00 +12°C° 0 mm 1 mps 541 mmHg 87%
    08:00 +12°C° 0 mm 1 mps 541 mmHg 84%
    09:00 +13°C° 0.1 mm 1 mps 542 mmHg 78%
    10:00 +15°C° 0.1 mm 1 mps 542 mmHg 71%
    11:00 +16°C° 0.1 mm 1 mps 542 mmHg 64%
    12:00 +17°C° 0.1 mm 2 mps 542 mmHg 60%
    13:00 +18°C° 0.1 mm 2 mps 542 mmHg 57%
    14:00 +19°C° 0.1 mm 3 mps 541 mmHg 53%
    15:00 +18°C° 0.1 mm 3 mps 541 mmHg 55%
    16:00 +18°C° 0.1 mm 4 mps 540 mmHg 57%
    17:00 +17°C° 0.1 mm 4 mps 540 mmHg 59%
    18:00 +15°C° 0.2 mm 4 mps 540 mmHg 64%
    19:00 +14°C° 0.2 mm 3 mps 540 mmHg 69%
    20:00 +14°C° 0.2 mm 2 mps 540 mmHg 74%
    21:00 +14°C° 0.1 mm 2 mps 540 mmHg 77%
    22:00 +13°C° 0.1 mm 1 mps 540 mmHg 80%
    23:00 +13°C° 0.1 mm 1 mps 540 mmHg 83%

    23 February, Friday

    Time Temperature Precipitation Wind Pressure Humidity
    00:00 +12°C° 0.1 mm 1 mps 540 mmHg 84%
    01:00 +12°C° 0.1 mm 1 mps 539 mmHg 86%
    02:00 +12°C° 0.1 mm 1 mps 539 mmHg 87%
    03:00 +12°C° 0.1 mm 1 mps 539 mmHg 88%
    04:00 +11°C° 0.1 mm 1 mps 539 mmHg 89%
    05:00 +10°C° 0.1 mm 0 mps 539 mmHg 89%
    06:00 +12°C° 0 mm 1 mps 539 mmHg 87%
    07:00 +12°C° 0 mm 1 mps 540 mmHg 84%
    08:00 +13°C° 0 mm 1 mps 540 mmHg 81%
    09:00 +14°C° 0.1 mm 1 mps 541 mmHg 76%
    10:00 +15°C° 0.1 mm 2 mps 541 mmHg 70%
    11:00 +16°C° 0.1 mm 2 mps 542 mmHg 65%
    12:00 +17°C° 0.5 mm 2 mps 542 mmHg 62%
    13:00 +18°C° 0.5 mm 3 mps 541 mmHg 59%
    14:00 +19°C° 0.5 mm 3 mps 541 mmHg 57%
    15:00 +18°C° 0.5 mm 4 mps 540 mmHg 59%
    16:00 +18°C° 0.5 mm 4 mps 540 mmHg 61%
    17:00 +17°C° 0.5 mm 4 mps 539 mmHg 63%
    18:00 +15°C° 0.3 mm 4 mps 540 mmHg 69%
    19:00 +14°C° 0.3 mm 3 mps 540 mmHg 74%
    20:00 +13°C° 0.3 mm 3 mps 540 mmHg 80%
    21:00 +13°C° 0.5 mm 2 mps 540 mmHg 82%
    22:00 +13°C° 0.5 mm 2 mps 540 mmHg 83%
    23:00 +13°C° 0.5 mm 2 mps 540 mmHg 85%
    Show more